FW6220 Weather Reports


time (UTC)temp
C
wind
direction
speed
KPH
gust
KPH
rain 1hr
cm
rain 24hr
cm
rain mn
cm
humidity
%
barometer
mb
20260906144607 21 61 3.2 9.7 0.00 0.00 0.00 84 1020.8
20260906143059 21 0 1.6 8.0 0.00 0.00 0.00 85 1020.6
20260906141618 21 58 4.8 12.9 0.00 0.00 0.00 85 1020.7
20260906140116 20 351 1.6 4.8 0.00 0.00 0.00 90 1020.6
20260906134622 18 0 1.6 6.4 0.00 0.00 0.00 98 1020.5
20260906133113 18 74 0.0 4.8 0.00 0.00 0.00 99 1020.6
20260906131557 18 0 0.0 0.0 0.00 0.00 0.00 99 1020.4
20260906130145 17 0 0.0 0.0 0.00 0.00 0.00 99 1020.3
20260906124610 16 0 0.0 0.0 0.00 0.00 0.00 98 1019.8
20260906123104 16 0 0.0 0.0 0.00 0.00 0.00 98 1019.8
20260906121608 15 0 0.0 0.0 0.00 0.00 0.00 98 1019.8
20260906120111 15 0 0.0 0.0 0.00 0.00 0.00 98 1019.6
20260906114602 15 0 0.0 0.0 0.00 0.00 0.00 98 1019.5
20260906113100 15 0 0.0 0.0 0.00 0.00 0.00 98 1019.2
20260906111558 15 0 0.0 0.0 0.00 0.00 0.00 98 1018.8
20260906110056 15 0 0.0 0.0 0.00 0.00 0.00 98 1018.8
20260906104558 16 0 0.0 0.0 0.00 0.00 0.00 98 1018.8
20260906103100 16 0 0.0 0.0 0.00 0.00 0.00 97 1018.8
20260906101604 16 0 0.0 0.0 0.00 0.00 0.00 98 1018.7
20260906094558 16 0 0.0 0.0 0.00 0.00 0.00 98 1018.5
20260906093100 16 0 0.0 0.0 0.00 0.00 0.00 98 1018.4
20260906091603 16 0 0.0 0.0 0.00 0.00 0.00 98 1018.5
20260906090104 16 0 0.0 0.0 0.00 0.00 0.00 98 1018.5
20260906084559 16 0 0.0 0.0 0.00 0.00 0.00 98 1018.4
20260906083105 16 0 0.0 0.0 0.00 0.00 0.00 98 1018.4
20260906081558 16 0 0.0 0.0 0.00 0.00 0.00 98 1018.5
20260906080058 16 0 0.0 0.0 0.00 0.00 0.00 97 1018.2
20260906074559 15 0 0.0 0.0 0.00 0.00 0.00 97 1018.4
20260906073059 15 0 0.0 0.0 0.00 0.00 0.00 97 1018.1
20260906071600 15 0 0.0 0.0 0.00 0.00 0.00 97 1018.0
20260906064559 15 0 0.0 0.0 0.00 0.00 0.00 97 1018.2
20260906063104 16 0 0.0 0.0 0.00 0.00 0.00 97 1018.3
20260906061626 16 0 0.0 0.0 0.00 0.00 0.00 97 1018.1
20260906060123 16 0 0.0 0.0 0.00 0.00 0.00 97 1017.8
20260906054606 16 0 0.0 0.0 0.00 0.00 0.00 97 1018.0
20260906053104 16 0 0.0 0.0 0.00 0.00 0.00 97 1018.0
20260906051605 16 0 0.0 0.0 0.00 0.00 0.00 97 1018.0
20260906050106 16 0 0.0 0.0 0.00 0.00 0.00 97 1017.7
20260906044606 16 0 0.0 0.0 0.00 0.00 0.00 97 1017.8
20260906043107 16 0 0.0 0.0 0.00 0.00 0.00 96 1017.8
20260906041605 16 0 0.0 0.0 0.00 0.00 0.00 96 1017.4
20260906040109 16 0 0.0 0.0 0.00 0.00 0.00 96 1017.4
20260906034607 16 0 0.0 0.0 0.00 0.00 0.00 95 1017.5
20260906033102 16 0 0.0 0.0 0.00 0.00 0.00 95 1017.6
20260906031604 17 0 0.0 0.0 0.00 0.00 0.00 95 1017.7
20260906030100 17 0 0.0 0.0 0.00 0.00 0.00 95 1017.7
20260906024608 17 0 0.0 0.0 0.00 0.00 0.00 94 1017.6
20260906023110 17 0 0.0 1.6 0.00 0.00 0.00 94 1017.4
20260906021601 17 0 0.0 0.0 0.00 0.00 0.00 93 1017.4
20260906014608 18 63 0.0 4.8 0.00 0.00 0.00 92 1017.1
20260906013103 18 0 0.0 1.6 0.00 0.00 0.00 91 1017.2
20260906011607 19 0 0.0 4.8 0.00 0.00 0.00 90 1017.0
20260906004558 20 76 1.6 4.8 0.00 0.00 0.00 91 1017.0
20260906003104 20 69 1.6 8.0 0.00 0.00 0.00 91 1017.0
20260906001603 20 71 1.6 6.4 0.00 0.00 0.00 92 1017.1
20260906000104 20 0 0.0 0.0 0.00 0.00 0.00 93 1017.1
20260905234556 21 0 0.0 6.4 0.00 0.00 0.00 92 1017.2
20260905233117 21 0 3.2 8.0 0.00 0.00 0.00 93 1017.2
20260905231601 21 0 0.0 8.0 0.00 0.00 0.00 93 1017.0
20260905230103 21 76 3.2 6.4 0.00 0.00 0.00 93 1017.1
20260905224606 21 74 1.6 11.3 0.00 0.00 0.00 93 1017.0
20260905223057 21 69 3.2 12.9 0.00 0.00 0.00 94 1016.8
20260905221602 21 52 3.2 16.1 0.00 0.00 0.00 94 1016.8
20260905220106 21 53 1.6 14.5 0.00 0.00 0.00 94 1016.6
20260905214601 21 66 4.8 12.9 0.00 0.00 0.00 94 1016.5
20260905213108 21 67 6.4 16.1 0.00 0.00 0.00 93 1016.7
20260905211609 21 66 6.4 17.7 0.00 0.00 0.00 93 1016.6
20260905210112 21 63 6.4 16.1 0.00 0.00 0.00 93 1016.7
20260905204607 21 83 4.8 16.1 0.00 0.00 0.00 93 1016.6
20260905203059 21 63 4.8 14.5 0.00 0.00 0.00 93 1016.5
20260905201604 21 61 4.8 14.5 0.00 0.00 0.00 93 1016.5
20260905194608 21 60 4.8 12.9 0.00 0.00 0.00 93 1016.5
20260905193105 21 71 4.8 11.3 0.00 0.00 0.00 93 1016.5
20260905191609 21 71 3.2 12.9 0.00 0.00 0.00 93 1016.5
20260905190104 22 50 4.8 16.1 0.00 0.00 0.00 92 1016.5
20260905184610 22 71 6.4 12.9 0.00 0.00 0.00 92 1016.7
20260905183119 22 74 4.8 14.5 0.00 0.00 0.00 93 1016.6
20260905181603 21 67 4.8 12.9 0.00 0.00 0.00 93 1016.6
20260905174600 22 60 3.2 14.5 0.00 0.00 0.00 94 1016.4
20260905173058 22 65 3.2 8.0 0.00 0.00 0.00 93 1016.4
20260905171604 23 65 4.8 14.5 0.00 0.00 0.00 90 1016.3
20260905170111 23 80 3.2 8.0 0.00 0.00 0.00 89 1016.3
20260905164602 23 72 0.0 4.8 0.00 0.00 0.00 90 1016.3
20260905163058 23 65 1.6 8.0 0.00 0.00 0.00 91 1016.2
20260905161605 23 63 3.2 12.9 0.00 0.00 0.00 91 1016.3
20260905154606 23 80 3.2 9.7 0.00 0.00 0.00 92 1016.1
20260905153119 23 76 0.0 9.7 0.00 0.00 0.00 93 1016.2
20260905151639 22 68 1.6 8.0 0.00 0.00 0.00 95 1016.0
20260905150104 22 0 1.6 12.9 0.00 0.00 0.00 96 1015.9